Regional Weather Roundup
Issued by NWS Sioux Falls, SD

Home | Current Version | Previous Version | Text Only | Print | Product List | Glossary On
Versions: 1 2 3 4 5 6 7 8 9 10 11 12 13 14 15 16 17 18 19 20 21 22 23 24 25 26 27 28 29 30 31 32 33 34 35 36 37 38 39 40 41 42 43 44 45 46 47 48 49 50
278
ASUS43 KFSD 290210
RWRFSD

WEATHER ROUNDUP FOR SE SOUTH DAKOTA/SW MINNESOTA/NW IOWA
NATIONAL WEATHER SERVICE SIOUX FALLS SD
900 PM CDT SUN MAY 28 2017

NOTE: "FAIR" INDICATES FEW OR NO CLOUDS BELOW 12,000 FEET WITH NO
SIGNIFICANT WEATHER AND OR OBSTRUCTIONS TO VISIBILITY.


SDZ038>040-050-052>070-290300-
SOUTHEAST SOUTH DAKOTA

CITY           SKY/WX    TMP DP  RH WIND       PRES   REMARKS
BROOKINGS      CLOUDY    55  51  86 SW10      29.86S
CHAMBERLAIN    CLEAR     68  44  41 W10       29.89S
HURON          PTCLDY    59  48  67 NE9       29.86R
MADISON        FAIR      54  52  94 NE5       29.87R
MITCHELL       MOCLDY    65  46  50 N17G30    29.88R
SIOUX FALLS    MOCLDY    55  49  80 NE7       29.87F
WINNER         FAIR      64  47  53 W13       29.94S
YANKTON        MOCLDY    68  44  42 W10       29.87R
$$

MNZ071-072-080-081-089-090-097-098-290300-
SOUTHWEST MINNESOTA

CITY           SKY/WX    TMP DP  RH WIND       PRES   REMARKS
FAIRMONT       CLOUDY    68  38  33 NW35G43   29.83R
JACKSON        HVY RAIN  55  45  67 NW23G38   29.90R
LUVERNE        CLOUDY    54  46  76 NE6       29.87F
MARSHALL       MOCLDY    59  47  64 W8        29.84R
MONTEVIDEO     PTCLDY    61  43  51 NW6       29.80R
PIPESTONE      CLOUDY    55  46  71 NW3       29.86F
REDWOOD FALLS  CLOUDY    59  44  57 W8        29.80R
TRACY          CLOUDY    60  47  62 W6        29.83F
WINDOM         CLOUDY    55  48  76 W15       29.85S
WORTHINGTON    LGT RAIN  54  49  83 W5        29.88R
$$

IAZ001>003-012>014-020>022-031-032-NEZ013-014-SDZ071-290300-
NORTHWEST IOWA

CITY           SKY/WX    TMP DP  RH WIND       PRES   REMARKS
CHEROKEE       CLOUDY    67  39  35 W5        29.84F
DENISON        CLEAR     68  41  37 W3        29.89S
ESTHERVILLE    CLOUDY    65  41  41 NW35G43   29.85R
LE MARS        MOCLDY    70  41  35 SW6       29.85F
ORANGE CITY    CLOUDY    64  46  52 N18G26    29.88R
SHELDON        CLOUDY    59  46  63 N20       29.87R
SIOUX CITY     CLEAR     68  40  35 W7        29.86S
SPENCER        LGT RAIN  56  50  80 N28G45    29.89R
STORM LAKE     PTCLDY    68  37  32 W8        29.85F
$$

ABBREVIATIONS USED IN REMARKS
   TC - TEMPERATURE IN CELSIUS
  WCI - WIND CHILL INDEX
   HX - HEAT INDEX
  VSB - VISIBILITY





USA.gov is the U.S. government's official web portal to all federal, state and local government web resources and services.